Zurück zum Katalog

FENGYUN 1C DEB

AktivLEO
NORAD 31484·DEBRIS·🇨🇳 China

Gestartet May 10, 1999 von Taiyuan Satellite Launch Center

Loading…

Nächste Überflüge (nächste 24 Stunden)

TLE

AktuellSource: Space-Track

Epoche: Sep 14, 2026, 08:41 UTC

1 31484U 99025BVY 26257.36203930  .00012305  00000-0  23905-2 0  9995
2 31484 101.8079 312.7662 0068404 120.8846 239.9092 14.61908125682520

Verfolge FENGYUN 1C DEB in Echtzeit mit AllMySat

Download on the App Store